This demonstration page uses our WeatherBlox Daily Observations layout. Learn more.

Left ArrowRight Arrow

40.92945, -100.16068

Hourly Observations for February 4, 2020

Temp ( °F °C ) Dew Point ( °F °C ) Humidity (%) Winds ( mph kmh ) Pressure ( in mb ) Visibility ( mi km ) Precip ( " mm )
12:15 am 00:15 Cloudy 25 -4 16 -9 69 69 NNE 17 28 30.17 1022 10 16 N/A
12:35 am 00:35 Cloudy 25 -4 17 -8.6 71 71 NNE 16 26 30.17 1022 10 16 N/A
12:55 am 00:55 Cloudy 24 -4.3 16 -8.7 72 72 N 22 35 30.18 1022 10 16 N/A
1:15 am 01:15 Cloudy 24 -4.5 16 -9 71 71 N 18 30 30.18 1022 10 16 N/A
1:35 am 01:35 Cloudy 24 -4.5 15 -9.2 70 70 N 17 28 30.18 1022 10 16 N/A
1:55 am 01:55 Cloudy 24 -4.5 15 -9.7 67 67 N 22 35 30.18 1022 10 16 N/A
2:15 am 02:15 Cloudy 24 -4.6 15 -9.2 71 71 N 18 30 30.18 1022 10 16 N/A
2:35 am 02:35 Cloudy 24 -4.7 15 -9.6 69 69 N 21 33 30.18 1022 10 16 N/A
2:55 am 02:55 Cloudy 24 -4.7 14 -9.9 67 67 N 22 35 30.18 1022 10 16 N/A
3:15 am 03:15 Cloudy 23 -4.8 14 -10.2 66 66 N 16 26 30.20 1023 10 16 N/A
3:35 am 03:35 Cloudy 24 -4.7 13 -10.4 65 65 N 14 22 30.20 1023 10 16 N/A
3:55 am 03:55 Cloudy 24 -4.6 13 -10.5 64 64 N 18 30 30.20 1023 10 16 N/A
4:15 am 04:15 Cloudy 24 -4.7 12 -10.9 62 62 N 15 24 30.20 1023 10 16 N/A
4:35 am 04:35 Partly Cloudy 23 -4.8 13 -10.5 65 65 NNE 17 28 30.20 1023 10 16 N/A
4:55 am 04:55 Clear 23 -5.1 14 -10.2 68 68 NNE 15 24 30.20 1023 10 16 N/A
5:15 am 05:15 Partly Cloudy 23 -5.1 14 -10.2 68 68 NNE 15 24 30.21 1023 10 16 N/A
5:35 am 05:35 Cloudy 23 -5.1 13 -10.7 65 65 NNE 15 24 30.23 1024 10 16 N/A
5:55 am 05:55 Cloudy 23 -5.1 11 -11.5 61 61 NNE 17 28 30.23 1024 10 16 N/A
6:15 am 06:15 Cloudy 23 -5.1 11 -11.8 60 60 NNE 18 30 30.24 1024 10 16 N/A
6:35 am 06:35 Cloudy 23 -5.1 10 -12 59 59 NNE 14 22 30.26 1025 10 16 N/A
6:55 am 06:55 Cloudy 23 -5.2 10 -12.5 57 57 NNE 18 30 30.26 1025 10 16 N/A
7:15 am 07:15 Cloudy 23 -5.2 10 -12.4 57 57 NNE 17 28 30.27 1025 10 16 N/A
7:35 am 07:35 Cloudy 22 -5.5 11 -11.9 61 61 NNE 16 26 30.27 1025 10 16 N/A
7:55 am 07:55 Cloudy 22 -5.6 10 -12 61 61 NNE 15 24 30.28 1026 10 16 N/A
8:15 am 08:15 Cloudy 22 -5.7 11 -11.9 62 62 NNE 17 28 30.30 1026 10 16 N/A
8:35 am 08:35 Cloudy 22 -5.7 11 -11.8 62 62 NNE 14 22 30.32 1027 10 16 N/A
8:55 am 08:55 Cloudy 22 -5.6 11 -11.9 62 62 NNE 16 26 30.32 1027 10 16 N/A
9:15 am 09:15 Cloudy 22 -5.6 12 -11.3 65 65 N 14 22 30.34 1028 10 16 N/A
9:35 am 09:35 Cloudy 22 -5.5 11 -11.6 63 63 N 16 26 30.33 1027 10 16 N/A
9:55 am 09:55 Cloudy 22 -5.5 10 -12.1 60 60 NNE 20 31 30.33 1027 10 16 N/A
10:15 am 10:15 Cloudy 23 -5.1 10 -12.4 57 57 NNE 17 28 30.34 1027 10 16 N/A
10:35 am 10:35 Cloudy 23 -4.8 10 -12.5 55 55 NNE 18 30 30.35 1028 10 16 N/A
10:55 am 10:55 Cloudy 24 -4.6 9 -12.8 53 53 NNE 18 30 30.34 1028 10 16 N/A
11:15 am 11:15 Cloudy 24 -4.2 8 -13.1 50 50 NNE 18 30 30.34 1027 10 16 N/A
11:35 am 11:35 Cloudy 26 -3.3 9 -13 47 47 NNE 21 33 30.33 1027 10 16 N/A
11:55 am 11:55 Cloudy 26 -3.4 7 -14.1 44 44 NNE 20 31 30.32 1027 10 16 N/A
12:15 pm 12:15 Mostly Cloudy 27 -3 7 -13.9 43 43 NE 23 37 30.30 1026 10 16 N/A
12:35 pm 12:35 Cloudy 27 -2.6 6 -14.5 40 40 NE 21 33 30.29 1026 10 16 N/A
12:55 pm 12:55 Cloudy 28 -2.5 6 -14.7 39 39 NNE 18 30 30.30 1026 10 16 N/A
1:15 pm 13:15 Cloudy 28 -2.4 6 -14.4 40 40 NNE 17 28 30.29 1026 10 16 N/A
1:35 pm 13:35 Cloudy 28 -2.4 6 -14.3 40 40 NNE 18 30 30.29 1026 10 16 N/A
1:55 pm 13:55 Cloudy 28 -2.5 6 -14.6 39 39 NNE 15 24 30.29 1026 10 16 N/A
2:15 pm 14:15 Cloudy 28 -2.5 6 -14.2 41 41 NE 17 28 30.29 1026 10 16 N/A
2:35 pm 14:35 Cloudy 29 -1.9 8 -13.5 41 41 NE 18 30 30.29 1026 10 16 N/A
2:55 pm 14:55 Cloudy 28 -2.1 9 -12.6 45 45 NE 17 28 30.30 1026 10 16 N/A
3:15 pm 15:15 Cloudy 28 -2.1 10 -12.3 46 46 ENE 16 26 30.30 1026 10 16 N/A
3:35 pm 15:35 Cloudy 28 -2.2 12 -11.2 51 51 ENE 18 30 30.29 1026 10 16 N/A
3:55 pm 15:55 Cloudy 28 -2 13 -10.4 53 53 NE 22 35 30.27 1025 10 16 N/A
4:15 pm 16:15 Cloudy 27 -2.6 13 -10.4 55 55 NE 16 26 30.28 1026 10 16 N/A
4:35 pm 16:35 Cloudy 28 -2.5 13 -10.5 55 55 NE 15 24 30.29 1026 10 16 N/A
4:55 pm 16:55 Cloudy 27 -2.6 12 -11.1 52 52 NE 15 24 30.28 1026 10 16 N/A
5:15 pm 17:15 Cloudy 28 -2.5 11 -11.8 49 49 NNE 13 20 30.29 1026 10 16 N/A
5:35 pm 17:35 Cloudy 27 -2.7 10 -12 49 49 NNE 12 19 30.30 1026 10 16 N/A
5:55 pm 17:55 Cloudy 27 -3 10 -12 50 50 NE 9 15 30.31 1026 10 16 N/A
6:15 pm 18:15 Cloudy 27 -3 11 -11.9 51 51 NE 10 17 30.31 1026 10 16 N/A
6:35 pm 18:35 Cloudy 26 -3.1 11 -11.9 51 51 NE 9 15 30.32 1027 10 16 N/A
6:55 pm 18:55 Cloudy 26 -3.2 11 -11.5 53 53 NE 12 19 30.32 1027 10 16 N/A
7:15 pm 19:15 Cloudy 26 -3.5 12 -11.1 56 56 NE 10 17 30.32 1027 10 16 N/A
7:35 pm 19:35 Cloudy 26 -3.5 12 -11.1 56 56 NNE 8 13 30.33 1027 10 16 N/A
7:55 pm 19:55 Cloudy 26 -3.6 12 -11.3 56 56 NNE 8 13 30.33 1027 10 16 N/A
8:15 pm 20:15 Cloudy 26 -3.6 11 -11.5 55 55 N 7 11 30.33 1027 10 16 N/A
8:35 pm 20:35 Cloudy 25 -3.7 12 -11.3 56 56 NNE 8 13 30.34 1027 10 16 N/A
8:55 pm 20:55 Cloudy 24 -4.2 15 -9.7 66 66 NNE 10 17 30.34 1027 10 16 N/A
9:15 pm 21:15 Cloudy 24 -4.7 16 -8.7 74 74 N 8 13 30.36 1028 7 11 N/A
9:35 pm 21:35 Cloudy 23 -5 17 -8.3 78 78 N 6 9 30.35 1028 10 16 N/A
9:55 pm 21:55 Cloudy 23 -5.1 17 -8.4 78 78 N 6 9 30.35 1028 10 16 N/A
10:15 pm 22:15 Cloudy 23 -5.1 17 -8.1 80 80 N 7 11 30.35 1028 10 16 N/A
10:35 pm 22:35 Cloudy with Light Snow 22 -5.3 18 -7.6 84 84 N 8 13 30.35 1028 4 6 N/A
10:55 pm 22:55 Cloudy with Light Snow 22 -5.5 19 -7.2 88 88 NNW 7 11 30.34 1028 4 6 N/A
11:15 pm 23:15 Cloudy with Light Snow 22 -5.7 19 -7.1 90 90 N 6 9 30.35 1028 5 8 N/A
11:35 pm 23:35 Cloudy with Light Snow 22 -5.7 19 -7 91 91 N 5 7 30.34 1027 7 11 N/A
11:55 pm 23:55 Cloudy with Light Snow 22 -5.7 19 -7 91 91 N 5 7 30.34 1027 5 8 N/A

Powered by AerisWeather